DateTimeUTC,F1_A11,F1_S11,BsB_S11,BsG_S11,BsR_S11,BbsB_S11,BbsG_S11,BbsR_S11,BaB_A11,BaG_A11,BaR_A11,Tu_S11,T_S11,Uu_S11,U_S11,P_S11,T1_A11
2021-10-06T12:00:00Z,00000200,21000000,,,,,,,0000.24,0000.24,-000.40,16.5,23.4,,00.0,0669.1,30.8
2021-10-06T12:01:00Z,00000200,21000000,,,,,,,-000.26,-000.02,0000.40,16.5,23.4,,00.0,0669.1,30.9
2021-10-06T12:02:00Z,00000200,21000000,,,,,,,0000.31,0000.23,-000.06,16.5,23.4,,00.0,0669.1,30.9
2021-10-06T12:03:00Z,00000200,61000000,,,,,,,-000.85,-000.56,-000.41,16.5,23.4,,00.0,0669.1,30.9
2021-10-06T12:04:00Z,00000200,41000000,0000.85,0000.48,0000.45,-000.37,0000.31,0000.34,0000.15,0000.04,-000.02,16.9,23.4,00.0,00.0,0670.0,30.9
2021-10-06T12:05:00Z,00000200,01000000,0000.19,0000.51,0000.49,0000.56,0000.15,0000.23,-000.59,-000.78,-000.31,17.0,23.4,00.0,00.0,0670.1,30.9
2021-10-06T12:06:00Z,00000200,01000000,0000.90,0000.82,0000.23,-000.21,0000.11,0000.03,0000.15,0000.27,-000.12,16.9,23.4,00.0,00.0,0670.1,30.9
2021-10-06T12:07:00Z,00000200,01000000,0000.55,0000.78,0000.19,0000.84,0000.19,0000.02,0000.01,-000.40,0000.02,16.9,23.3,00.0,00.0,0670.1,30.9
2021-10-06T12:08:00Z,00000200,01000000,0001.45,0000.73,0000.37,-000.15,0000.23,-000.03,0000.06,0000.15,0000.02,16.8,23.3,,00.0,0670.1,30.9
2021-10-06T12:09:00Z,00000200,01000000,0000.84,0000.98,-000.13,0000.20,-000.09,0000.29,0000.04,0000.24,0000.08,16.8,23.3,00.0,00.0,0670.1,30.9
2021-10-06T12:10:00Z,00000200,01000000,0000.80,0000.52,0000.19,-000.23,0000.09,0000.38,0000.36,0000.01,-000.11,16.7,23.2,,00.0,0670.0,30.8
2021-10-06T12:11:00Z,00000200,01000000,0000.97,0000.28,0000.21,-000.24,0000.03,0000.29,0000.06,0000.03,0000.36,16.7,23.2,00.0,00.0,0670.0,30.8
2021-10-06T12:12:00Z,00000200,01000000,-000.04,0000.49,0000.18,-000.56,-000.10,-000.18,0000.14,0000.08,-000.15,16.6,23.2,00.0,00.0,0670.1,30.8
2021-10-06T12:13:00Z,00000200,01000000,0001.51,0000.19,0000.53,-000.24,-000.06,0000.27,0000.32,0000.03,0000.21,16.5,23.2,,00.0,0670.0,30.8
2021-10-06T12:14:00Z,00000200,01000000,0000.93,0000.84,0000.47,-000.29,0000.14,0000.32,0000.29,0000.79,0000.51,16.5,23.1,,00.0,0670.0,30.8
2021-10-06T12:15:00Z,00000200,01000000,0000.68,0000.68,0000.23,0000.37,0000.29,0000.28,0000.42,0000.51,0000.72,16.5,23.1,,00.0,0670.0,30.8
2021-10-06T12:16:00Z,00000200,01000000,0001.15,0000.06,0000.40,0000.28,-000.02,0000.06,0000.32,0000.22,0000.19,16.6,23.2,00.0,00.0,0670.1,30.8
2021-10-06T12:17:00Z,00000200,01000000,0000.77,0000.80,0000.27,-000.28,0000.03,0000.28,0000.60,0000.68,0000.37,16.7,23.2,00.0,00.0,0670.1,30.9
2021-10-06T12:18:00Z,00000200,01000000,0000.65,0000.53,0000.45,0000.65,-000.13,0000.47,0000.30,0000.14,0000.21,16.8,23.2,00.0,00.0,0670.1,30.9
2021-10-06T12:19:00Z,00000200,01000000,0000.79,0000.59,0000.46,0000.11,0000.36,0000.07,0000.28,0000.47,0000.40,16.9,23.3,00.0,00.0,0670.1,30.9
2021-10-06T12:20:00Z,00000200,01000000,0000.59,0000.44,0000.21,0000.22,0000.09,0000.17,0000.77,0000.42,0000.16,16.9,23.3,00.0,00.0,0670.1,30.9
2021-10-06T12:21:00Z,00000200,01000000,0000.84,0000.45,0000.59,-000.09,-000.06,0000.15,-000.09,0000.41,-000.30,16.9,23.3,00.0,00.0,0670.1,30.9
2021-10-06T12:22:00Z,00000200,01000000,0000.47,0000.95,0000.69,0000.17,0000.05,0000.38,0000.05,-000.15,0000.00,16.8,23.3,00.0,00.0,0670.1,30.9
2021-10-06T12:23:00Z,00000200,01000000,0000.14,0000.60,0000.40,0000.08,0000.30,0000.12,-000.01,-000.32,0000.02,16.8,23.2,00.0,00.0,0670.1,30.9
2021-10-06T12:24:00Z,00000200,01000000,0000.81,0000.83,0000.46,0000.61,-000.03,0000.36,0000.39,0000.47,0000.39,16.7,23.2,00.1,00.0,0670.1,30.8
2021-10-06T12:25:00Z,00000200,01000000,0000.08,0000.86,0000.36,0000.09,-000.12,0000.23,0000.10,-000.12,0000.15,16.7,23.2,00.0,00.0,0670.1,30.8
2021-10-06T12:26:00Z,00000200,01000000,0000.92,0000.73,0000.14,0000.37,0000.31,0000.42,0000.10,0000.09,-000.28,16.6,23.2,00.0,00.0,0670.1,30.8
2021-10-06T12:27:00Z,00000200,01000000,0000.19,0000.91,0000.53,-000.30,0000.15,0000.35,0000.52,0000.60,0000.51,16.6,23.1,00.0,00.0,0670.1,30.8
2021-10-06T12:28:00Z,00000200,01000000,0000.10,0000.32,0000.33,0000.95,0000.25,0000.26,0000.43,0000.19,0000.33,16.5,23.1,00.1,00.0,0670.1,30.8
2021-10-06T12:29:00Z,00000200,01000000,0000.24,0000.47,0000.30,0000.08,-000.03,0000.31,0000.32,0000.60,0000.67,16.5,23.1,00.1,00.0,0670.1,30.8
2021-10-06T12:30:00Z,00000200,01000000,0000.64,0000.30,0000.21,-000.22,0000.09,0000.20,0000.11,0000.24,-000.21,16.5,23.1,00.1,00.1,0670.1,30.8
2021-10-06T12:31:00Z,00000200,01000000,0000.53,0000.64,0000.35,0000.34,0000.30,0000.36,0000.40,0000.28,0000.55,16.6,23.1,00.1,00.0,0670.1,30.9
2021-10-06T12:32:00Z,00000200,01000000,0001.09,0000.44,0000.48,0000.46,0000.02,0000.02,0000.56,0000.36,0000.20,16.6,23.1,00.0,00.0,0670.1,30.9
2021-10-06T12:33:00Z,00000200,01000000,0001.22,0000.66,0000.59,-000.26,0000.31,0000.10,0000.66,0000.32,0000.61,16.7,23.1,00.1,00.1,0670.1,30.9
2021-10-06T12:34:00Z,00000200,01000000,0000.90,0000.63,0000.64,-000.39,0000.12,0000.12,0000.28,0000.41,0000.23,16.8,23.2,00.1,00.1,0670.1,30.9
2021-10-06T12:35:00Z,00000200,01000000,0000.09,0000.54,0000.30,0000.79,0000.02,0000.25,0000.19,0000.45,-000.03,16.9,23.2,00.1,00.1,0670.1,30.9
2021-10-06T12:36:00Z,00000200,01000000,0001.66,0000.91,0000.26,0000.22,0000.01,0000.21,-000.11,0000.05,0000.05,16.9,23.3,00.1,00.1,0670.1,30.9
2021-10-06T12:37:00Z,00000200,01000000,0001.29,0000.44,0000.40,-000.14,0000.55,0000.11,0000.22,-000.06,0000.01,16.9,23.3,00.1,00.1,0670.1,30.9
2021-10-06T12:38:00Z,00000200,01000000,0000.49,0000.34,0000.26,-000.35,0000.27,0000.10,-000.27,-000.43,0000.10,16.9,23.3,00.1,00.0,0670.1,30.9
2021-10-06T12:39:00Z,00000200,01000000,0001.05,0000.38,0000.42,0000.53,-000.12,-000.04,-000.30,0000.06,-000.38,16.8,23.3,00.0,00.0,0670.1,30.9
2021-10-06T12:40:00Z,00000200,01000000,0001.22,0000.63,0000.27,-000.19,-000.13,0000.08,0000.02,-000.37,-000.13,16.7,23.2,00.0,00.0,0670.1,30.9
2021-10-06T12:41:00Z,00000200,01000000,0000.95,0000.84,0000.51,0000.14,0000.18,0000.13,0000.19,0000.24,0000.03,16.7,23.2,,00.0,0670.1,30.9
2021-10-06T12:42:00Z,00000200,01000000,0001.44,0000.50,0000.43,-000.14,0000.14,-000.13,0000.34,0000.56,0000.17,16.7,23.2,00.0,00.0,0670.1,30.8
2021-10-06T12:43:00Z,00000200,01000000,0000.82,0000.54,0000.28,0000.25,0000.05,0000.51,0000.59,0000.30,0000.43,16.6,23.1,00.0,00.0,0670.1,30.8
2021-10-06T12:44:00Z,00000200,01000000,0000.76,0000.64,0000.42,0000.03,0000.08,0000.32,0000.82,0000.86,0000.94,16.6,23.1,00.0,00.0,0670.1,30.8
2021-10-06T12:45:00Z,00000200,01000000,0001.05,0000.45,0000.38,0000.21,0000.25,-000.26,0000.31,0000.39,0000.32,16.6,23.1,00.1,00.1,0670.1,30.8
2021-10-06T12:46:00Z,00000200,01000000,0001.31,0000.17,0000.26,-000.06,0000.06,0000.06,0000.51,0000.85,0000.35,16.7,23.1,00.1,00.1,0670.1,30.9
2021-10-06T12:47:00Z,00000200,01000000,-000.12,0000.55,0000.49,0000.11,0000.00,-000.05,0000.49,-000.03,0000.23,16.8,23.2,00.1,00.0,0670.1,30.9
2021-10-06T12:48:00Z,00000200,01000000,0001.19,0000.26,0000.29,-000.04,0000.09,0000.03,0000.30,0000.76,0000.34,16.8,23.2,00.1,00.1,0670.1,30.9
2021-10-06T12:49:00Z,00000200,01000000,0001.26,0000.35,0000.45,0000.66,0000.04,0000.08,0000.64,0000.27,0000.37,17.0,23.3,00.1,00.1,0670.1,30.9
2021-10-06T12:50:00Z,00000200,01000000,0001.18,0000.34,0000.39,-000.21,0000.18,0000.11,0000.81,0000.69,0000.47,17.0,23.3,00.2,00.1,0670.1,30.9
2021-10-06T12:51:00Z,00000200,01000000,0000.30,0000.14,0000.12,0000.16,0000.04,0000.05,0000.14,0000.22,0000.23,17.1,23.4,00.2,00.2,0670.2,30.9
2021-10-06T12:52:00Z,00000200,01000000,0000.77,0000.41,0000.11,0000.05,0000.43,-000.22,0000.19,0000.12,-000.29,17.2,23.4,00.3,00.2,0670.1,30.9
2021-10-06T12:53:00Z,00000200,01000000,-000.05,-000.14,0000.40,-000.03,0000.13,0000.08,0000.25,0000.29,0000.32,17.1,23.4,00.4,00.3,0670.2,30.9
2021-10-06T12:54:00Z,00000200,01000000,0000.74,0000.51,0000.60,0000.13,-000.01,0000.08,0000.23,-000.18,0000.13,17.1,23.4,00.4,00.3,0670.1,30.9
2021-10-06T12:55:00Z,00000200,01000000,0000.59,0000.49,0000.11,0000.63,-000.22,0000.17,-000.07,0000.13,-000.08,17.0,23.4,00.5,00.3,0670.1,30.9
2021-10-06T12:56:00Z,00000200,01000000,0000.33,0000.00,0000.32,0000.05,0000.25,-000.01,-000.12,-000.17,0000.15,17.0,23.3,00.4,00.2,0670.1,30.9
2021-10-06T12:57:00Z,00000200,41000000,,,,,,,-000.25,-000.36,-000.53,17.0,23.4,,00.0,0670.0,30.9
2021-10-06T12:58:00Z,00000200,61000000,,,,,,,-000.19,0000.12,0000.01,16.6,23.4,00.0,00.0,0669.1,30.8
2021-10-06T12:59:00Z,00000200,21000000,,,,,,,0000.35,0000.22,0000.41,16.6,23.5,,00.0,0669.1,30.9
